Time,TemperatureF,DewpointF,PressureIn,WindDirection,WindDirectionDegrees,WindSpeedMPH,WindSpeedGustMPH,Humidity,HourlyPrecipIn,Conditions,Clouds,dailyrainin,SoftwareType,DateUTC
2013-06-01 00:01:00,62.2,45.3,17.73,North,-999,-999.0,-999.0,38,0.00,,,0.00,meteohub,2013-06-01 07:01:00,
2013-06-01 00:06:00,62.1,45.1,17.73,North,-999,-999.0,-999.0,38,0.00,,,0.00,meteohub,2013-06-01 07:06:00,
2013-06-01 00:11:00,62.1,45.1,17.73,North,-999,-999.0,-999.0,38,0.00,,,0.00,meteohub,2013-06-01 07:11:00,
2013-06-01 00:16:00,62.1,45.1,17.73,North,-999,-999.0,-999.0,38,0.00,,,0.00,meteohub,2013-06-01 07:16:00,
2013-06-01 00:21:00,61.9,44.6,17.73,North,-999,-999.0,-999.0,38,0.00,,,0.00,meteohub,2013-06-01 07:21:00,
2013-06-01 00:26:00,61.7,45.0,17.73,North,-999,-999.0,-999.0,38,0.00,,,0.00,meteohub,2013-06-01 07:26:00,
2013-06-01 00:31:00,61.5,44.8,17.73,North,-999,-999.0,-999.0,38,0.00,,,0.00,meteohub,2013-06-01 07:31:00,
2013-06-01 00:36:00,61.3,44.6,17.73,North,-999,-999.0,-999.0,38,0.00,,,0.00,meteohub,2013-06-01 07:36:00,
2013-06-01 00:41:00,61.2,44.4,17.73,North,-999,-999.0,-999.0,38,0.00,,,0.00,meteohub,2013-06-01 07:41:00,
2013-06-01 00:46:00,61.2,44.4,17.73,North,-999,-999.0,-999.0,38,0.00,,,0.00,meteohub,2013-06-01 07:46:00,
2013-06-01 00:51:00,61.0,44.2,17.73,North,-999,-999.0,-999.0,38,0.00,,,0.00,meteohub,2013-06-01 07:51:00,
2013-06-01 00:57:00,61.0,44.2,17.73,North,-999,-999.0,-999.0,38,0.00,,,0.00,meteohub,2013-06-01 07:57:00,
2013-06-01 01:02:00,60.6,43.9,17.73,North,-999,-999.0,-999.0,38,0.00,,,0.00,meteohub,2013-06-01 08:02:00,
2013-06-01 01:07:00,60.4,44.2,17.73,North,-999,-999.0,-999.0,38,0.00,,,0.00,meteohub,2013-06-01 08:07:00,
2013-06-01 01:12:00,60.4,44.2,17.73,North,-999,-999.0,-999.0,38,0.00,,,0.00,meteohub,2013-06-01 08:12:00,
2013-06-01 01:17:00,60.4,44.2,17.73,North,-999,-999.0,-999.0,38,0.00,,,0.00,meteohub,2013-06-01 08:17:00,
2013-06-01 01:22:00,60.1,44.4,17.73,North,-999,-999.0,-999.0,38,0.00,,,0.00,meteohub,2013-06-01 08:22:00,
2013-06-01 01:27:00,60.1,44.4,17.73,North,-999,-999.0,-999.0,38,0.00,,,0.00,meteohub,2013-06-01 08:27:00,
2013-06-01 01:32:00,59.9,43.7,17.73,North,-999,-999.0,-999.0,38,0.00,,,0.00,meteohub,2013-06-01 08:32:00,
2013-06-01 01:37:00,59.7,43.5,17.73,North,-999,-999.0,-999.0,38,0.00,,,0.00,meteohub,2013-06-01 08:37:00,
2013-06-01 01:42:00,59.7,43.5,17.73,North,-999,-999.0,-999.0,38,0.00,,,0.00,meteohub,2013-06-01 08:42:00,
2013-06-01 01:47:00,59.7,43.5,17.73,North,-999,-999.0,-999.0,38,0.00,,,0.00,meteohub,2013-06-01 08:47:00,
2013-06-01 01:52:00,59.5,43.3,17.73,North,-999,-999.0,-999.0,38,0.00,,,0.00,meteohub,2013-06-01 08:52:00,
2013-06-01 01:57:00,59.4,43.2,17.73,North,-999,-999.0,-999.0,37,0.00,,,0.00,meteohub,2013-06-01 08:57:00,
2013-06-01 02:02:00,59.4,43.2,17.73,North,-999,-999.0,-999.0,38,0.00,,,0.00,meteohub,2013-06-01 09:02:00,
2013-06-01 02:07:00,59.2,43.0,17.73,North,-999,-999.0,-999.0,38,0.00,,,0.00,meteohub,2013-06-01 09:07:00,
2013-06-01 02:12:00,59.2,43.0,17.73,North,-999,-999.0,-999.0,38,0.00,,,0.00,meteohub,2013-06-01 09:12:00,
2013-06-01 02:17:00,59.0,43.3,17.73,North,-999,-999.0,-999.0,38,0.00,,,0.00,meteohub,2013-06-01 09:17:00,
2013-06-01 02:22:00,59.0,43.3,17.73,North,-999,-999.0,-999.0,38,0.00,,,0.00,meteohub,2013-06-01 09:22:00,
2013-06-01 02:27:00,58.8,43.2,17.73,North,-999,-999.0,-999.0,38,0.00,,,0.00,meteohub,2013-06-01 09:27:00,
2013-06-01 02:32:00,58.6,43.0,17.73,North,-999,-999.0,-999.0,38,0.00,,,0.00,meteohub,2013-06-01 09:32:00,
2013-06-01 02:37:00,58.5,42.8,17.73,North,-999,-999.0,-999.0,38,0.00,,,0.00,meteohub,2013-06-01 09:37:00,
2013-06-01 02:42:00,58.3,43.2,17.73,North,-999,-999.0,-999.0,38,0.00,,,0.00,meteohub,2013-06-01 09:42:00,
2013-06-01 02:47:00,58.3,43.2,17.73,North,-999,-999.0,-999.0,38,0.00,,,0.00,meteohub,2013-06-01 09:47:00,
2013-06-01 02:52:00,58.1,43.0,17.73,North,-999,-999.0,-999.0,38,0.00,,,0.00,meteohub,2013-06-01 09:52:00,
2013-06-01 02:57:00,58.1,43.0,17.73,North,-999,-999.0,-999.0,38,0.00,,,0.00,meteohub,2013-06-01 09:57:00,
2013-06-01 03:02:00,57.9,42.8,17.73,North,-999,-999.0,-999.0,38,0.00,,,0.00,meteohub,2013-06-01 10:02:00,
2013-06-01 03:07:00,57.9,42.8,17.73,North,-999,-999.0,-999.0,38,0.00,,,0.00,meteohub,2013-06-01 10:07:00,
2013-06-01 03:12:00,57.9,43.2,17.73,North,-999,-999.0,-999.0,38,0.00,,,0.00,meteohub,2013-06-01 10:12:00,
2013-06-01 03:17:00,57.9,43.2,17.73,North,-999,-999.0,-999.0,38,0.00,,,0.00,meteohub,2013-06-01 10:17:00,
2013-06-01 03:22:00,57.7,43.0,17.73,North,-999,-999.0,-999.0,38,0.00,,,0.00,meteohub,2013-06-01 10:22:00,
2013-06-01 03:27:00,57.6,43.0,17.73,North,-999,-999.0,-999.0,38,0.00,,,0.00,meteohub,2013-06-01 10:27:00,
2013-06-01 03:32:00,57.6,43.3,17.73,North,-999,-999.0,-999.0,38,0.00,,,0.00,meteohub,2013-06-01 10:32:00,
2013-06-01 03:37:00,57.4,43.2,17.73,North,-999,-999.0,-999.0,38,0.00,,,0.00,meteohub,2013-06-01 10:37:00,
2013-06-01 03:42:00,57.2,43.5,17.73,North,-999,-999.0,-999.0,38,0.00,,,0.00,meteohub,2013-06-01 10:42:00,
2013-06-01 03:47:00,57.2,43.5,17.73,North,-999,-999.0,-999.0,38,0.00,,,0.00,meteohub,2013-06-01 10:47:00,
2013-06-01 03:52:00,57.0,43.3,17.73,North,-999,-999.0,-999.0,38,0.00,,,0.00,meteohub,2013-06-01 10:52:00,
2013-06-01 03:57:00,57.0,43.3,17.73,North,-999,-999.0,-999.0,38,0.00,,,0.00,meteohub,2013-06-01 10:57:00,
2013-06-01 04:02:00,57.0,43.3,17.73,North,-999,-999.0,-999.0,38,0.00,,,0.00,meteohub,2013-06-01 11:02:00,
2013-06-01 04:07:00,56.8,43.2,17.73,North,-999,-999.0,-999.0,38,0.00,,,0.00,meteohub,2013-06-01 11:07:00,
2013-06-01 04:12:00,56.8,43.2,17.73,North,-999,-999.0,-999.0,38,0.00,,,0.00,meteohub,2013-06-01 11:12:00,
2013-06-01 04:17:00,56.8,43.5,17.73,North,-999,-999.0,-999.0,38,0.00,,,0.00,meteohub,2013-06-01 11:17:00,
2013-06-01 04:22:00,56.7,43.3,17.73,North,-999,-999.0,-999.0,38,0.00,,,0.00,meteohub,2013-06-01 11:22:00,
2013-06-01 04:27:00,56.7,43.7,17.73,North,-999,-999.0,-999.0,38,0.00,,,0.00,meteohub,2013-06-01 11:27:00,
2013-06-01 04:32:00,56.5,43.7,17.73,North,-999,-999.0,-999.0,38,0.00,,,0.00,meteohub,2013-06-01 11:32:00,
2013-06-01 04:37:00,56.5,44.1,17.73,North,-999,-999.0,-999.0,38,0.00,,,0.00,meteohub,2013-06-01 11:37:00,
2013-06-01 04:42:00,56.3,43.9,17.73,North,-999,-999.0,-999.0,38,0.00,,,0.00,meteohub,2013-06-01 11:42:00,
2013-06-01 04:47:00,56.3,43.5,17.73,North,-999,-999.0,-999.0,38,0.00,,,0.00,meteohub,2013-06-01 11:47:00,
2013-06-01 04:52:00,56.3,43.5,17.73,North,-999,-999.0,-999.0,38,0.00,,,0.00,meteohub,2013-06-01 11:52:00,
2013-06-01 04:57:00,56.3,43.5,17.73,North,-999,-999.0,-999.0,38,0.00,,,0.00,meteohub,2013-06-01 11:57:00,
2013-06-01 05:02:00,56.3,43.5,17.73,North,-999,-999.0,-999.0,38,0.00,,,0.00,meteohub,2013-06-01 12:02:00,
2013-06-01 05:07:00,56.1,43.3,17.73,North,-999,-999.0,-999.0,38,0.00,,,0.00,meteohub,2013-06-01 12:07:00,
2013-06-01 05:12:00,55.9,43.2,17.73,North,-999,-999.0,-999.0,38,0.00,,,0.00,meteohub,2013-06-01 12:12:00,
2013-06-01 05:17:00,56.1,43.7,17.73,North,-999,-999.0,-999.0,38,0.00,,,0.00,meteohub,2013-06-01 12:17:00,
2013-06-01 05:22:00,56.1,43.7,17.73,North,-999,-999.0,-999.0,38,0.00,,,0.00,meteohub,2013-06-01 12:22:00,
2013-06-01 05:27:00,55.9,43.2,17.73,North,-999,-999.0,-999.0,38,0.00,,,0.00,meteohub,2013-06-01 12:27:00,
2013-06-01 05:32:00,55.8,43.0,17.73,North,-999,-999.0,-999.0,38,0.00,,,0.00,meteohub,2013-06-01 12:32:00,
2013-06-01 05:37:00,55.8,43.3,17.73,North,-999,-999.0,-999.0,38,0.00,,,0.00,meteohub,2013-06-01 12:37:00,
2013-06-01 05:42:00,55.6,43.2,17.73,North,-999,-999.0,-999.0,38,0.00,,,0.00,meteohub,2013-06-01 12:42:00,
2013-06-01 05:47:00,55.6,43.2,17.73,North,-999,-999.0,-999.0,38,0.00,,,0.00,meteohub,2013-06-01 12:47:00,
2013-06-01 05:52:00,55.4,43.0,17.73,North,-999,-999.0,-999.0,38,0.00,,,0.00,meteohub,2013-06-01 12:52:00,
2013-06-01 05:57:00,55.4,43.0,17.73,North,-999,-999.0,-999.0,38,0.00,,,0.00,meteohub,2013-06-01 12:57:00,
2013-06-01 06:02:00,55.2,42.8,17.73,North,-999,-999.0,-999.0,38,0.00,,,0.00,meteohub,2013-06-01 13:02:00,
2013-06-01 06:07:00,55.2,42.8,17.73,North,-999,-999.0,-999.0,38,0.00,,,0.00,meteohub,2013-06-01 13:07:00,
2013-06-01 06:12:00,55.2,42.8,17.73,North,-999,-999.0,-999.0,38,0.00,,,0.00,meteohub,2013-06-01 13:12:00,
2013-06-01 06:17:00,55.2,42.8,17.73,North,-999,-999.0,-999.0,38,0.00,,,0.00,meteohub,2013-06-01 13:17:00,
2013-06-01 06:22:00,55.2,42.8,17.73,North,-999,-999.0,-999.0,38,0.00,,,0.00,meteohub,2013-06-01 13:22:00,
2013-06-01 06:27:00,55.2,43.3,17.73,North,-999,-999.0,-999.0,38,0.00,,,0.00,meteohub,2013-06-01 13:27:00,
2013-06-01 06:32:00,55.2,43.3,17.73,North,-999,-999.0,-999.0,38,0.00,,,0.00,meteohub,2013-06-01 13:32:00,
2013-06-01 06:37:00,55.2,43.7,17.73,North,-999,-999.0,-999.0,38,0.00,,,0.00,meteohub,2013-06-01 13:37:00,
2013-06-01 06:42:00,55.2,43.7,17.73,North,-999,-999.0,-999.0,38,0.00,,,0.00,meteohub,2013-06-01 13:42:00,
2013-06-01 06:47:00,55.2,44.1,17.73,North,-999,-999.0,-999.0,38,0.00,,,0.00,meteohub,2013-06-01 13:47:00,
2013-06-01 06:52:00,55.6,44.8,17.73,North,-999,-999.0,-999.0,38,0.00,,,0.00,meteohub,2013-06-01 13:52:00,
2013-06-01 06:57:00,55.8,45.0,17.73,North,-999,-999.0,-999.0,38,0.00,,,0.00,meteohub,2013-06-01 13:57:00,
2013-06-01 07:02:00,55.9,45.5,17.73,North,-999,-999.0,-999.0,38,0.00,,,0.00,meteohub,2013-06-01 14:02:00,
2013-06-01 07:07:00,56.3,45.9,17.73,North,-999,-999.0,-999.0,38,0.00,,,0.00,meteohub,2013-06-01 14:07:00,
2013-06-01 07:12:00,56.5,46.0,17.73,North,-999,-999.0,-999.0,38,0.00,,,0.00,meteohub,2013-06-01 14:12:00,
2013-06-01 07:17:00,56.7,46.6,17.73,North,-999,-999.0,-999.0,38,0.00,,,0.00,meteohub,2013-06-01 14:17:00,
2013-06-01 07:22:00,56.8,46.8,17.73,North,-999,-999.0,-999.0,38,0.00,,,0.00,meteohub,2013-06-01 14:22:00,
2013-06-01 07:27:00,57.4,47.7,17.73,North,-999,-999.0,-999.0,38,0.00,,,0.00,meteohub,2013-06-01 14:27:00,
2013-06-01 07:32:00,57.7,48.0,17.73,North,-999,-999.0,-999.0,38,0.00,,,0.00,meteohub,2013-06-01 14:32:00,
2013-06-01 07:37:00,58.1,48.4,17.73,North,-999,-999.0,-999.0,38,0.00,,,0.00,meteohub,2013-06-01 14:37:00,
2013-06-01 07:42:00,58.5,48.7,17.73,North,-999,-999.0,-999.0,38,0.00,,,0.00,meteohub,2013-06-01 14:42:00,
2013-06-01 07:47:00,59.0,49.3,17.73,North,-999,-999.0,-999.0,39,0.00,,,0.00,meteohub,2013-06-01 14:47:00,
2013-06-01 07:52:00,59.4,49.6,17.73,North,-999,-999.0,-999.0,39,0.00,,,0.00,meteohub,2013-06-01 14:52:00,
2013-06-01 07:57:00,59.5,49.3,17.73,North,-999,-999.0,-999.0,39,0.00,,,0.00,meteohub,2013-06-01 14:57:00,
2013-06-01 08:02:00,59.9,49.6,17.73,North,-999,-999.0,-999.0,39,0.00,,,0.00,meteohub,2013-06-01 15:02:00,
2013-06-01 08:07:00,60.3,50.0,17.73,North,-999,-999.0,-999.0,39,0.00,,,0.00,meteohub,2013-06-01 15:07:00,
2013-06-01 08:12:00,60.6,50.0,17.73,North,-999,-999.0,-999.0,39,0.00,,,0.00,meteohub,2013-06-01 15:12:00,
2013-06-01 08:17:00,60.8,49.8,17.73,North,-999,-999.0,-999.0,39,0.00,,,0.00,meteohub,2013-06-01 15:17:00,
2013-06-01 08:22:00,61.2,49.6,17.73,North,-999,-999.0,-999.0,39,0.00,,,0.00,meteohub,2013-06-01 15:22:00,
2013-06-01 08:27:00,61.7,49.8,17.73,North,-999,-999.0,-999.0,39,0.00,,,0.00,meteohub,2013-06-01 15:27:00,
2013-06-01 08:32:00,62.2,49.5,17.73,North,-999,-999.0,-999.0,39,0.00,,,0.00,meteohub,2013-06-01 15:32:00,
2013-06-01 08:37:00,63.0,49.3,17.73,North,-999,-999.0,-999.0,39,0.00,,,0.00,meteohub,2013-06-01 15:37:00,
2013-06-01 08:42:00,63.3,49.3,17.73,North,-999,-999.0,-999.0,39,0.00,,,0.00,meteohub,2013-06-01 15:42:00,
2013-06-01 08:47:00,63.7,49.1,17.73,North,-999,-999.0,-999.0,40,0.00,,,0.00,meteohub,2013-06-01 15:47:00,
2013-06-01 08:52:00,64.2,48.2,17.73,North,-999,-999.0,-999.0,39,0.00,,,0.00,meteohub,2013-06-01 15:52:00,
2013-06-01 08:57:00,64.4,47.5,17.73,North,-999,-999.0,-999.0,40,0.00,,,0.00,meteohub,2013-06-01 15:57:00,
2013-06-01 09:02:00,64.4,47.5,17.73,North,-999,-999.0,-999.0,40,0.00,,,0.00,meteohub,2013-06-01 16:02:00,
2013-06-01 09:07:00,64.8,47.7,17.73,North,-999,-999.0,-999.0,40,0.00,,,0.00,meteohub,2013-06-01 16:07:00,
2013-06-01 09:12:00,64.8,47.3,17.73,North,-999,-999.0,-999.0,40,0.00,,,0.00,meteohub,2013-06-01 16:12:00,
2013-06-01 09:17:00,65.1,47.1,17.73,North,-999,-999.0,-999.0,40,0.00,,,0.00,meteohub,2013-06-01 16:17:00,
2013-06-01 09:22:00,65.5,47.8,17.73,North,-999,-999.0,-999.0,40,0.00,,,0.00,meteohub,2013-06-01 16:22:00,
2013-06-01 09:27:00,65.8,47.7,17.73,North,-999,-999.0,-999.0,40,0.00,,,0.00,meteohub,2013-06-01 16:27:00,
2013-06-01 09:32:00,66.4,46.6,17.73,North,-999,-999.0,-999.0,40,0.00,,,0.00,meteohub,2013-06-01 16:32:00,
2013-06-01 09:37:00,67.1,47.3,17.73,North,-999,-999.0,-999.0,40,0.00,,,0.00,meteohub,2013-06-01 16:37:00,
2013-06-01 09:42:00,67.5,47.7,17.73,North,-999,-999.0,-999.0,40,0.00,,,0.00,meteohub,2013-06-01 16:42:00,
2013-06-01 09:47:00,67.8,47.5,17.73,North,-999,-999.0,-999.0,40,0.00,,,0.00,meteohub,2013-06-01 16:47:00,
2013-06-01 09:52:00,68.2,46.6,17.73,North,-999,-999.0,-999.0,40,0.00,,,0.00,meteohub,2013-06-01 16:52:00,
2013-06-01 09:57:00,68.5,46.9,17.73,North,-999,-999.0,-999.0,41,0.00,,,0.00,meteohub,2013-06-01 16:57:00,
2013-06-01 10:02:00,68.9,46.8,17.73,North,-999,-999.0,-999.0,41,0.00,,,0.00,meteohub,2013-06-01 17:02:00,
2013-06-01 10:07:00,69.3,46.9,17.73,North,-999,-999.0,-999.0,41,0.00,,,0.00,meteohub,2013-06-01 17:07:00,
2013-06-01 10:12:00,70.0,46.4,17.73,North,-999,-999.0,-999.0,40,0.00,,,0.00,meteohub,2013-06-01 17:12:00,
2013-06-01 10:17:00,70.5,46.4,17.73,North,-999,-999.0,-999.0,40,0.00,,,0.00,meteohub,2013-06-01 17:17:00,
2013-06-01 10:22:00,71.1,47.5,17.73,North,-999,-999.0,-999.0,40,0.00,,,0.00,meteohub,2013-06-01 17:22:00,
2013-06-01 10:27:00,71.6,46.6,17.73,North,-999,-999.0,-999.0,40,0.00,,,0.00,meteohub,2013-06-01 17:27:00,
2013-06-01 10:32:00,72.1,45.9,17.73,North,-999,-999.0,-999.0,40,0.00,,,0.00,meteohub,2013-06-01 17:32:00,
2013-06-01 10:37:00,72.5,46.2,17.73,North,-999,-999.0,-999.0,40,0.00,,,0.00,meteohub,2013-06-01 17:37:00,
2013-06-01 10:42:00,73.0,45.9,17.73,North,-999,-999.0,-999.0,40,0.00,,,0.00,meteohub,2013-06-01 17:42:00,
2013-06-01 10:47:00,73.6,45.7,17.73,North,-999,-999.0,-999.0,40,0.00,,,0.00,meteohub,2013-06-01 17:47:00,
2013-06-01 10:52:00,74.3,46.4,17.73,North,-999,-999.0,-999.0,40,0.00,,,0.00,meteohub,2013-06-01 17:52:00,
2013-06-01 10:57:00,75.0,45.5,17.73,North,-999,-999.0,-999.0,40,0.00,,,0.00,meteohub,2013-06-01 17:57:00,
2013-06-01 11:02:00,75.7,44.6,17.73,North,-999,-999.0,-999.0,40,0.00,,,0.00,meteohub,2013-06-01 18:02:00,
2013-06-01 11:07:00,76.5,44.4,17.73,North,-999,-999.0,-999.0,40,0.00,,,0.00,meteohub,2013-06-01 18:07:00,
2013-06-01 11:12:00,76.8,44.8,17.73,North,-999,-999.0,-999.0,40,0.00,,,0.00,meteohub,2013-06-01 18:12:00,
2013-06-01 11:17:00,77.4,44.4,17.73,North,-999,-999.0,-999.0,40,0.00,,,0.00,meteohub,2013-06-01 18:17:00,
2013-06-01 11:22:00,77.7,44.6,17.73,North,-999,-999.0,-999.0,40,0.00,,,0.00,meteohub,2013-06-01 18:22:00,
2013-06-01 11:27:00,78.1,44.1,17.73,North,-999,-999.0,-999.0,40,0.00,,,0.00,meteohub,2013-06-01 18:27:00,
2013-06-01 11:32:00,78.4,44.4,17.73,North,-999,-999.0,-999.0,40,0.00,,,0.00,meteohub,2013-06-01 18:32:00,
2013-06-01 11:37:00,79.2,45.1,17.73,North,-999,-999.0,-999.0,39,0.00,,,0.00,meteohub,2013-06-01 18:37:00,
2013-06-01 11:42:00,79.7,45.5,17.73,North,-999,-999.0,-999.0,39,0.00,,,0.00,meteohub,2013-06-01 18:42:00,
2013-06-01 11:47:00,80.2,43.2,17.73,North,-999,-999.0,-999.0,39,0.00,,,0.00,meteohub,2013-06-01 18:47:00,
2013-06-01 11:52:00,80.6,43.5,17.73,North,-999,-999.0,-999.0,39,0.00,,,0.00,meteohub,2013-06-01 18:52:00,
2013-06-01 11:57:00,81.1,43.0,17.73,North,-999,-999.0,-999.0,39,0.00,,,0.00,meteohub,2013-06-01 18:57:00,
2013-06-01 12:02:00,81.7,43.5,17.73,North,-999,-999.0,-999.0,38,0.00,,,0.00,meteohub,2013-06-01 19:02:00,
2013-06-01 12:07:00,82.6,41.0,17.73,North,-999,-999.0,-999.0,38,0.00,,,0.00,meteohub,2013-06-01 19:07:00,
2013-06-01 12:12:00,83.1,42.6,17.73,North,-999,-999.0,-999.0,38,0.00,,,0.00,meteohub,2013-06-01 19:12:00,
2013-06-01 12:17:00,83.7,43.0,17.73,North,-999,-999.0,-999.0,38,0.00,,,0.00,meteohub,2013-06-01 19:17:00,
2013-06-01 12:22:00,84.0,41.0,17.73,North,-999,-999.0,-999.0,38,0.00,,,0.00,meteohub,2013-06-01 19:22:00,
2013-06-01 12:27:00,84.6,40.3,17.73,North,-999,-999.0,-999.0,38,0.00,,,0.00,meteohub,2013-06-01 19:27:00,
2013-06-01 12:32:00,85.5,41.0,17.73,North,-999,-999.0,-999.0,38,0.00,,,0.00,meteohub,2013-06-01 19:32:00,
2013-06-01 12:37:00,86.2,41.7,17.73,North,-999,-999.0,-999.0,38,0.00,,,0.00,meteohub,2013-06-01 19:37:00,
2013-06-01 12:42:00,86.7,42.1,17.73,North,-999,-999.0,-999.0,38,0.00,,,0.00,meteohub,2013-06-01 19:42:00,
2013-06-01 12:47:00,86.9,41.0,17.73,North,-999,-999.0,-999.0,38,0.00,,,0.00,meteohub,2013-06-01 19:47:00,
2013-06-01 12:52:00,87.6,41.5,17.73,North,-999,-999.0,-999.0,38,0.00,,,0.00,meteohub,2013-06-01 19:52:00,
2013-06-01 12:57:00,87.8,40.5,17.73,North,-999,-999.0,-999.0,38,0.00,,,0.00,meteohub,2013-06-01 19:57:00,
2013-06-01 13:02:00,88.2,40.6,17.73,North,-999,-999.0,-999.0,38,0.00,,,0.00,meteohub,2013-06-01 20:02:00,
2013-06-01 13:07:00,88.7,41.2,17.73,North,-999,-999.0,-999.0,38,0.00,,,0.00,meteohub,2013-06-01 20:07:00,
2013-06-01 13:12:00,88.9,41.4,17.73,North,-999,-999.0,-999.0,37,0.00,,,0.00,meteohub,2013-06-01 20:12:00,
2013-06-01 13:17:00,89.2,43.0,17.73,North,-999,-999.0,-999.0,37,0.00,,,0.00,meteohub,2013-06-01 20:17:00,
2013-06-01 13:22:00,89.4,43.0,17.73,North,-999,-999.0,-999.0,37,0.00,,,0.00,meteohub,2013-06-01 20:22:00,
2013-06-01 13:27:00,89.8,42.1,17.73,North,-999,-999.0,-999.0,37,0.00,,,0.00,meteohub,2013-06-01 20:27:00,
2013-06-01 13:32:00,90.0,42.3,17.73,North,-999,-999.0,-999.0,37,0.00,,,0.00,meteohub,2013-06-01 20:32:00,
2013-06-01 13:37:00,90.0,42.3,17.73,North,-999,-999.0,-999.0,37,0.00,,,0.00,meteohub,2013-06-01 20:37:00,
2013-06-01 13:42:00,90.0,40.8,17.73,North,-999,-999.0,-999.0,36,0.00,,,0.00,meteohub,2013-06-01 20:42:00,
2013-06-01 13:47:00,90.1,42.3,17.73,North,-999,-999.0,-999.0,36,0.00,,,0.00,meteohub,2013-06-01 20:47:00,
2013-06-01 13:52:00,90.5,42.6,17.73,North,-999,-999.0,-999.0,36,0.00,,,0.00,meteohub,2013-06-01 20:52:00,
2013-06-01 13:57:00,90.7,42.8,17.73,North,-999,-999.0,-999.0,36,0.00,,,0.00,meteohub,2013-06-01 20:57:00,
2013-06-01 14:02:00,90.9,43.0,17.73,North,-999,-999.0,-999.0,36,0.00,,,0.00,meteohub,2013-06-01 21:02:00,
2013-06-01 14:07:00,91.2,41.7,17.73,North,-999,-999.0,-999.0,36,0.00,,,0.00,meteohub,2013-06-01 21:07:00,
2013-06-01 14:12:00,91.4,41.9,17.73,North,-999,-999.0,-999.0,36,0.00,,,0.00,meteohub,2013-06-01 21:12:00,
2013-06-01 14:17:00,91.8,42.3,17.73,North,-999,-999.0,-999.0,36,0.00,,,0.00,meteohub,2013-06-01 21:17:00,
2013-06-01 14:22:00,92.1,42.4,17.73,North,-999,-999.0,-999.0,37,0.00,,,0.00,meteohub,2013-06-01 21:22:00,
2013-06-01 14:27:00,92.5,42.8,17.73,North,-999,-999.0,-999.0,37,0.00,,,0.00,meteohub,2013-06-01 21:27:00,
2013-06-01 14:32:00,92.5,42.8,17.73,North,-999,-999.0,-999.0,37,0.00,,,0.00,meteohub,2013-06-01 21:32:00,
2013-06-01 14:37:00,92.3,42.6,17.73,North,-999,-999.0,-999.0,37,0.00,,,0.00,meteohub,2013-06-01 21:37:00,
2013-06-01 14:42:00,92.3,42.6,17.73,North,-999,-999.0,-999.0,36,0.00,,,0.00,meteohub,2013-06-01 21:42:00,
2013-06-01 14:47:00,92.5,42.8,17.73,North,-999,-999.0,-999.0,36,0.00,,,0.00,meteohub,2013-06-01 21:47:00,
2013-06-01 14:52:00,92.5,42.8,17.73,North,-999,-999.0,-999.0,36,0.00,,,0.00,meteohub,2013-06-01 21:52:00,
2013-06-01 14:57:00,92.3,42.6,17.73,North,-999,-999.0,-999.0,36,0.00,,,0.00,meteohub,2013-06-01 21:57:00,
2013-06-01 15:02:00,92.1,43.9,17.73,North,-999,-999.0,-999.0,36,0.00,,,0.00,meteohub,2013-06-01 22:02:00,
2013-06-01 15:07:00,91.9,43.7,17.73,North,-999,-999.0,-999.0,36,0.00,,,0.00,meteohub,2013-06-01 22:07:00,
2013-06-01 15:12:00,91.9,42.4,17.73,North,-999,-999.0,-999.0,36,0.00,,,0.00,meteohub,2013-06-01 22:12:00,
2013-06-01 15:17:00,91.9,42.4,17.73,North,-999,-999.0,-999.0,36,0.00,,,0.00,meteohub,2013-06-01 22:17:00,
2013-06-01 15:22:00,92.3,42.6,17.73,North,-999,-999.0,-999.0,36,0.00,,,0.00,meteohub,2013-06-01 22:22:00,
2013-06-01 15:27:00,92.5,42.8,17.73,North,-999,-999.0,-999.0,36,0.00,,,0.00,meteohub,2013-06-01 22:27:00,
2013-06-01 15:32:00,92.8,43.2,17.73,North,-999,-999.0,-999.0,36,0.00,,,0.00,meteohub,2013-06-01 22:32:00,
2013-06-01 15:37:00,92.7,44.4,17.73,North,-999,-999.0,-999.0,36,0.00,,,0.00,meteohub,2013-06-01 22:37:00,
2013-06-01 15:42:00,92.5,44.2,17.73,North,-999,-999.0,-999.0,36,0.00,,,0.00,meteohub,2013-06-01 22:42:00,
2013-06-01 15:47:00,92.7,44.4,17.73,North,-999,-999.0,-999.0,36,0.00,,,0.00,meteohub,2013-06-01 22:47:00,
2013-06-01 15:52:00,92.8,44.6,17.73,North,-999,-999.0,-999.0,36,0.00,,,0.00,meteohub,2013-06-01 22:52:00,
2013-06-01 15:57:00,92.7,44.4,17.73,North,-999,-999.0,-999.0,36,0.00,,,0.00,meteohub,2013-06-01 22:57:00,
2013-06-01 16:02:00,92.1,43.9,17.73,North,-999,-999.0,-999.0,36,0.00,,,0.00,meteohub,2013-06-01 23:02:00,
2013-06-01 16:07:00,91.9,45.1,17.73,North,-999,-999.0,-999.0,36,0.00,,,0.00,meteohub,2013-06-01 23:07:00,
2013-06-01 16:12:00,91.8,45.0,17.73,North,-999,-999.0,-999.0,37,0.00,,,0.00,meteohub,2013-06-01 23:12:00,
2013-06-01 16:17:00,91.8,45.0,17.73,North,-999,-999.0,-999.0,37,0.00,,,0.00,meteohub,2013-06-01 23:17:00,
2013-06-01 16:22:00,91.4,46.0,17.73,North,-999,-999.0,-999.0,37,0.00,,,0.00,meteohub,2013-06-01 23:22:00,
2013-06-01 16:27:00,91.2,45.9,17.73,North,-999,-999.0,-999.0,37,0.00,,,0.00,meteohub,2013-06-01 23:27:00,
2013-06-01 16:32:00,91.0,46.9,17.73,North,-999,-999.0,-999.0,37,0.00,,,0.00,meteohub,2013-06-01 23:32:00,
2013-06-01 16:37:00,90.5,46.4,17.73,North,-999,-999.0,-999.0,37,0.00,,,0.00,meteohub,2013-06-01 23:37:00,
2013-06-01 16:42:00,90.1,46.2,17.73,North,-999,-999.0,-999.0,37,0.00,,,0.00,meteohub,2013-06-01 23:42:00,
2013-06-01 16:47:00,89.6,46.9,17.73,North,-999,-999.0,-999.0,38,0.00,,,0.00,meteohub,2013-06-01 23:47:00,
2013-06-01 16:52:00,89.4,47.8,17.73,North,-999,-999.0,-999.0,38,0.00,,,0.00,meteohub,2013-06-01 23:52:00,
2013-06-01 16:57:00,89.1,47.7,17.73,North,-999,-999.0,-999.0,38,0.00,,,0.00,meteohub,2013-06-01 23:57:00,
2013-06-01 17:02:00,88.3,46.9,17.73,North,-999,-999.0,-999.0,38,0.00,,,0.00,meteohub,2013-06-02 00:02:00,
2013-06-01 17:07:00,87.6,47.5,17.73,North,-999,-999.0,-999.0,38,0.00,,,0.00,meteohub,2013-06-02 00:07:00,
2013-06-01 17:12:00,87.6,47.5,17.73,North,-999,-999.0,-999.0,38,0.00,,,0.00,meteohub,2013-06-02 00:12:00,
2013-06-01 17:17:00,87.6,47.5,17.73,North,-999,-999.0,-999.0,38,0.00,,,0.00,meteohub,2013-06-02 00:17:00,
2013-06-01 17:22:00,87.1,48.0,17.73,North,-999,-999.0,-999.0,38,0.00,,,0.00,meteohub,2013-06-02 00:22:00,
2013-06-01 17:27:00,86.9,46.8,17.73,North,-999,-999.0,-999.0,38,0.00,,,0.00,meteohub,2013-06-02 00:27:00,
2013-06-01 17:32:00,85.6,46.8,17.73,North,-999,-999.0,-999.0,38,0.00,,,0.00,meteohub,2013-06-02 00:32:00,
2013-06-01 17:37:00,85.1,46.4,17.73,North,-999,-999.0,-999.0,38,0.00,,,0.00,meteohub,2013-06-02 00:37:00,
2013-06-01 17:42:00,84.6,46.9,17.73,North,-999,-999.0,-999.0,38,0.00,,,0.00,meteohub,2013-06-02 00:42:00,
2013-06-01 17:47:00,84.0,46.4,17.73,North,-999,-999.0,-999.0,38,0.00,,,0.00,meteohub,2013-06-02 00:47:00,
2013-06-01 17:52:00,83.3,46.8,17.73,North,-999,-999.0,-999.0,38,0.00,,,0.00,meteohub,2013-06-02 00:52:00,
2013-06-01 17:57:00,83.1,46.6,17.73,North,-999,-999.0,-999.0,38,0.00,,,0.00,meteohub,2013-06-02 00:57:00,
2013-06-01 18:02:00,82.9,47.5,17.73,North,-999,-999.0,-999.0,38,0.00,,,0.00,meteohub,2013-06-02 01:02:00,
2013-06-01 18:07:00,82.9,47.5,17.73,North,-999,-999.0,-999.0,38,0.00,,,0.00,meteohub,2013-06-02 01:07:00,
2013-06-01 18:12:00,82.8,47.3,17.73,North,-999,-999.0,-999.0,38,0.00,,,0.00,meteohub,2013-06-02 01:12:00,
2013-06-01 18:17:00,82.4,46.0,17.73,North,-999,-999.0,-999.0,38,0.00,,,0.00,meteohub,2013-06-02 01:17:00,
2013-06-01 18:22:00,81.9,46.4,17.73,North,-999,-999.0,-999.0,38,0.00,,,0.00,meteohub,2013-06-02 01:22:00,
2013-06-01 18:27:00,81.7,46.4,17.73,North,-999,-999.0,-999.0,38,0.00,,,0.00,meteohub,2013-06-02 01:27:00,
2013-06-01 18:32:00,81.3,46.0,17.73,North,-999,-999.0,-999.0,38,0.00,,,0.00,meteohub,2013-06-02 01:32:00,
2013-06-01 18:37:00,81.1,45.9,17.73,North,-999,-999.0,-999.0,38,0.00,,,0.00,meteohub,2013-06-02 01:37:00,
2013-06-01 18:42:00,81.0,45.7,17.73,North,-999,-999.0,-999.0,38,0.00,,,0.00,meteohub,2013-06-02 01:42:00,
2013-06-01 18:47:00,81.0,45.7,17.73,North,-999,-999.0,-999.0,38,0.00,,,0.00,meteohub,2013-06-02 01:47:00,
2013-06-01 18:52:00,81.0,45.7,17.73,North,-999,-999.0,-999.0,38,0.00,,,0.00,meteohub,2013-06-02 01:52:00,
2013-06-01 18:57:00,80.8,45.5,17.73,North,-999,-999.0,-999.0,38,0.00,,,0.00,meteohub,2013-06-02 01:57:00,
2013-06-01 19:02:00,80.6,45.3,17.73,North,-999,-999.0,-999.0,38,0.00,,,0.00,meteohub,2013-06-02 02:02:00,
2013-06-01 19:07:00,80.6,46.2,17.73,North,-999,-999.0,-999.0,38,0.00,,,0.00,meteohub,2013-06-02 02:07:00,
2013-06-01 19:12:00,80.6,46.2,17.73,North,-999,-999.0,-999.0,38,0.00,,,0.00,meteohub,2013-06-02 02:12:00,
2013-06-01 19:17:00,80.4,46.2,17.73,North,-999,-999.0,-999.0,38,0.00,,,0.00,meteohub,2013-06-02 02:17:00,
2013-06-01 19:22:00,80.2,46.0,17.73,North,-999,-999.0,-999.0,38,0.00,,,0.00,meteohub,2013-06-02 02:22:00,
2013-06-01 19:27:00,79.9,45.7,17.73,North,-999,-999.0,-999.0,38,0.00,,,0.00,meteohub,2013-06-02 02:27:00,
2013-06-01 19:32:00,79.7,46.4,17.73,North,-999,-999.0,-999.0,38,0.00,,,0.00,meteohub,2013-06-02 02:32:00,
2013-06-01 19:37:00,79.5,46.2,17.73,North,-999,-999.0,-999.0,38,0.00,,,0.00,meteohub,2013-06-02 02:37:00,
2013-06-01 19:42:00,79.2,45.9,17.73,North,-999,-999.0,-999.0,38,0.00,,,0.00,meteohub,2013-06-02 02:42:00,
2013-06-01 19:47:00,79.0,45.7,17.73,North,-999,-999.0,-999.0,38,0.00,,,0.00,meteohub,2013-06-02 02:47:00,
2013-06-01 19:52:00,78.6,45.5,17.73,North,-999,-999.0,-999.0,38,0.00,,,0.00,meteohub,2013-06-02 02:52:00,
2013-06-01 19:57:00,78.3,45.1,17.73,North,-999,-999.0,-999.0,38,0.00,,,0.00,meteohub,2013-06-02 02:57:00,
2013-06-01 20:02:00,78.1,45.0,17.73,North,-999,-999.0,-999.0,38,0.00,,,0.00,meteohub,2013-06-02 03:02:00,
2013-06-01 20:07:00,77.9,44.8,17.73,North,-999,-999.0,-999.0,38,0.00,,,0.00,meteohub,2013-06-02 03:07:00,
2013-06-01 20:12:00,77.5,44.6,17.73,North,-999,-999.0,-999.0,38,0.00,,,0.00,meteohub,2013-06-02 03:12:00,
2013-06-01 20:17:00,77.2,45.0,17.73,North,-999,-999.0,-999.0,38,0.00,,,0.00,meteohub,2013-06-02 03:17:00,
2013-06-01 20:22:00,76.8,44.8,17.73,North,-999,-999.0,-999.0,38,0.00,,,0.00,meteohub,2013-06-02 03:22:00,
2013-06-01 20:27:00,76.5,45.1,17.73,North,-999,-999.0,-999.0,38,0.00,,,0.00,meteohub,2013-06-02 03:27:00,
2013-06-01 20:32:00,75.9,45.5,17.73,North,-999,-999.0,-999.0,38,0.00,,,0.00,meteohub,2013-06-02 03:32:00,
2013-06-01 20:37:00,75.4,45.1,17.73,North,-999,-999.0,-999.0,38,0.00,,,0.00,meteohub,2013-06-02 03:37:00,
2013-06-01 20:42:00,75.0,46.2,17.73,North,-999,-999.0,-999.0,38,0.00,,,0.00,meteohub,2013-06-02 03:42:00,
2013-06-01 20:47:00,74.5,45.9,17.73,North,-999,-999.0,-999.0,38,0.00,,,0.00,meteohub,2013-06-02 03:47:00,
2013-06-01 20:52:00,74.1,46.2,17.73,North,-999,-999.0,-999.0,38,0.00,,,0.00,meteohub,2013-06-02 03:52:00,
2013-06-01 20:57:00,73.8,45.9,17.73,North,-999,-999.0,-999.0,38,0.00,,,0.00,meteohub,2013-06-02 03:57:00,
2013-06-01 21:01:00,73.4,45.5,17.73,North,-999,-999.0,-999.0,38,0.00,,,0.00,meteohub,2013-06-02 04:01:00,
2013-06-01 21:02:00,73.4,45.5,17.73,North,-999,-999.0,-999.0,38,0.00,,,0.00,meteohub,2013-06-02 04:02:00,
2013-06-01 21:04:00,73.2,46.0,17.73,North,-999,-999.0,-999.0,38,0.00,,,0.00,meteohub,2013-06-02 04:04:00,
2013-06-01 21:09:00,72.7,45.7,17.73,North,-999,-999.0,-999.0,38,0.00,,,0.00,meteohub,2013-06-02 04:09:00,
2013-06-01 21:14:00,72.3,45.3,17.73,North,-999,-999.0,-999.0,38,0.00,,,0.00,meteohub,2013-06-02 04:14:00,
2013-06-01 21:19:00,72.1,45.1,17.73,North,-999,-999.0,-999.0,38,0.00,,,0.00,meteohub,2013-06-02 04:19:00,
2013-06-01 21:24:00,71.8,44.8,17.73,North,-999,-999.0,-999.0,38,0.00,,,0.00,meteohub,2013-06-02 04:24:00,
2013-06-01 21:29:00,71.6,44.6,17.73,North,-999,-999.0,-999.0,38,0.00,,,0.00,meteohub,2013-06-02 04:29:00,
2013-06-01 21:35:00,71.2,45.0,17.73,North,-999,-999.0,-999.0,38,0.00,,,0.00,meteohub,2013-06-02 04:35:00,
2013-06-01 21:40:00,71.1,44.8,17.73,North,-999,-999.0,-999.0,38,0.00,,,0.00,meteohub,2013-06-02 04:40:00,
2013-06-01 21:45:00,70.7,45.1,17.73,North,-999,-999.0,-999.0,38,0.00,,,0.00,meteohub,2013-06-02 04:45:00,
2013-06-01 21:50:00,70.5,45.0,17.73,North,-999,-999.0,-999.0,37,0.00,,,0.00,meteohub,2013-06-02 04:50:00,
2013-06-01 21:55:00,70.3,45.5,17.73,North,-999,-999.0,-999.0,37,0.00,,,0.00,meteohub,2013-06-02 04:55:00,
2013-06-01 22:00:00,70.0,45.9,17.73,North,-999,-999.0,-999.0,37,0.00,,,0.00,meteohub,2013-06-02 05:00:00,
2013-06-01 22:05:00,69.4,45.3,17.73,North,-999,-999.0,-999.0,37,0.00,,,0.00,meteohub,2013-06-02 05:05:00,
2013-06-01 22:10:00,69.4,46.0,17.73,North,-999,-999.0,-999.0,37,0.00,,,0.00,meteohub,2013-06-02 05:10:00,
2013-06-01 22:15:00,69.3,45.9,17.73,North,-999,-999.0,-999.0,37,0.00,,,0.00,meteohub,2013-06-02 05:15:00,
2013-06-01 22:20:00,69.3,46.4,17.73,North,-999,-999.0,-999.0,37,0.00,,,0.00,meteohub,2013-06-02 05:20:00,
2013-06-01 22:25:00,69.1,46.2,17.73,North,-999,-999.0,-999.0,38,0.00,,,0.00,meteohub,2013-06-02 05:25:00,
2013-06-01 22:30:00,68.9,46.0,17.73,North,-999,-999.0,-999.0,38,0.00,,,0.00,meteohub,2013-06-02 05:30:00,
2013-06-01 22:36:00,68.7,45.9,17.73,North,-999,-999.0,-999.0,38,0.00,,,0.00,meteohub,2013-06-02 05:36:00,
2013-06-01 22:41:00,68.5,45.7,17.73,North,-999,-999.0,-999.0,38,0.00,,,0.00,meteohub,2013-06-02 05:41:00,
2013-06-01 22:46:00,68.4,45.7,17.73,North,-999,-999.0,-999.0,38,0.00,,,0.00,meteohub,2013-06-02 05:46:00,
2013-06-01 22:51:00,68.2,45.5,17.73,North,-999,-999.0,-999.0,38,0.00,,,0.00,meteohub,2013-06-02 05:51:00,
2013-06-01 22:56:00,68.2,45.5,17.73,North,-999,-999.0,-999.0,38,0.00,,,0.00,meteohub,2013-06-02 05:56:00,
2013-06-01 23:01:00,68.0,45.3,17.73,North,-999,-999.0,-999.0,38,0.00,,,0.00,meteohub,2013-06-02 06:01:00,
2013-06-01 23:06:00,67.6,45.5,17.73,North,-999,-999.0,-999.0,38,0.00,,,0.00,meteohub,2013-06-02 06:06:00,
2013-06-01 23:11:00,67.5,45.3,17.73,North,-999,-999.0,-999.0,38,0.00,,,0.00,meteohub,2013-06-02 06:11:00,
2013-06-01 23:16:00,67.3,45.9,17.73,North,-999,-999.0,-999.0,38,0.00,,,0.00,meteohub,2013-06-02 06:16:00,
2013-06-01 23:21:00,67.1,45.7,17.73,North,-999,-999.0,-999.0,38,0.00,,,0.00,meteohub,2013-06-02 06:21:00,
2013-06-01 23:26:00,66.9,45.5,17.73,North,-999,-999.0,-999.0,38,0.00,,,0.00,meteohub,2013-06-02 06:26:00,
2013-06-01 23:32:00,66.7,45.3,17.73,North,-999,-999.0,-999.0,38,0.00,,,0.00,meteohub,2013-06-02 06:32:00,
2013-06-01 23:37:00,66.7,45.3,17.73,North,-999,-999.0,-999.0,38,0.00,,,0.00,meteohub,2013-06-02 06:37:00,
2013-06-01 23:42:00,66.6,45.1,17.73,North,-999,-999.0,-999.0,38,0.00,,,0.00,meteohub,2013-06-02 06:42:00,
2013-06-01 23:47:00,66.4,45.5,17.73,North,-999,-999.0,-999.0,38,0.00,,,0.00,meteohub,2013-06-02 06:47:00,
2013-06-01 23:52:00,66.4,45.5,17.73,North,-999,-999.0,-999.0,38,0.00,,,0.00,meteohub,2013-06-02 06:52:00,
2013-06-01 23:57:00,66.2,45.3,17.73,North,-999,-999.0,-999.0,38,0.00,,,0.00,meteohub,2013-06-02 06:57:00,